Total_Precipitation_Accumulation
0.77 0.96 1.07 1.07 1.07 1.11 1.13 1.08 1.10 1.08 1.07 1.05 1.07 1.18 1.24 1.18 1.11 1.17 1.16 1.08 1.05 0.97 0.94 0.96 0.88 0.81 0.88 0.91 0.95 0.94 0.89 0.93 0.97 0.57 0.45 0.49 0.64 0.74 0.82 0.76 0.75 0.74 0.75
0.68 0.80 0.94 1.02 1.05 1.09 1.07 1.10 1.15 1.17 1.12 1.02 1.00 1.08 1.19 1.20 1.14 1.14 1.14 1.09 1.07 1.04 0.98 0.98 0.97 0.91 0.92 0.95 1.02 1.01 0.93 0.87 0.95 0.80 0.60 0.64 0.73 0.82 0.86 0.83 0.82 0.80 0.72
0.69 0.77 0.89 0.99 1.00 1.03 0.98 1.01 1.16 1.29 1.26 1.11 1.03 1.06 1.16 1.23 1.16 1.10 1.14 1.13 1.04 0.97 0.96 0.99 1.00 1.00 0.93 0.92 1.02 1.06 1.00 0.95 0.99 0.99 0.78 0.70 0.79 0.90 1.01 1.00 0.95 0.93 0.83
0.65 0.75 0.84 0.95 0.94 0.92 0.91 0.90 1.03 1.20 1.30 1.24 1.10 1.06 1.13 1.26 1.28 1.25 1.27 1.22 1.13 0.98 0.86 0.87 0.96 1.08 1.08 1.08 1.11 1.09 1.12 1.17 1.16 1.15 0.99 0.86 0.90 0.99 1.13 1.19 1.16 1.09 1.02
0.62 0.71 0.75 0.84 0.94 0.91 0.87 0.89 0.97 1.09 1.17 1.21 1.20 1.12 1.13 1.34 1.56 1.71 1.60 1.32 1.14 1.04 0.87 0.79 0.88 1.12 1.31 1.47 1.51 1.39 1.39 1.52 1.50 1.45 1.32 1.16 1.05 1.11 1.21 1.20 1.27 1.19 1.17
0.61 0.67 0.70 0.79 0.91 0.95 0.88 0.89 0.99 1.08 1.12 1.15 1.17 1.15 1.13 1.30 1.67 1.88 1.55 1.20 1.06 1.00 0.94 0.83 0.87 1.11 1.26 1.39 1.53 1.49 1.52 1.71 1.82 1.77 1.61 1.38 1.08 0.98 1.06 1.26 1.46 1.61 1.53
0.62 0.64 0.70 0.79 0.84 0.92 0.92 0.94 1.02 1.11 1.12 1.11 1.09 1.10 1.07 1.11 1.46 1.68 1.44 1.12 1.00 0.95 0.92 0.88 0.90 1.00 1.12 1.15 1.26 1.30 1.30 1.47 1.72 1.83 1.78 1.39 1.17 1.07 1.27 1.51 1.57 1.68 1.55
0.66 0.64 0.70 0.77 0.81 0.90 0.95 0.97 1.07 1.15 1.11 1.09 1.09 1.06 1.03 1.07 1.34 1.57 1.39 1.11 1.02 0.97 0.95 0.90 0.84 0.88 1.01 1.16 1.24 1.21 1.13 1.19 1.42 1.61 1.80 1.61 1.40 1.42 1.69 1.95 2.06 2.07 1.81
0.69 0.64 0.65 0.74 0.80 0.88 0.94 1.00 1.07 1.15 1.10 1.06 1.05 1.06 1.01 1.01 1.26 1.59 1.46 1.14 1.06 1.00 0.99 0.93 0.83 0.79 0.99 1.16 1.13 1.11 1.04 1.08 1.19 1.39 1.55 1.63 1.64 1.78 2.08 2.47 2.65 2.64 2.37
0.66 0.59 0.61 0.67 0.72 0.81 0.89 0.98 1.05 1.06 1.05 1.05 1.01 1.00 0.97 0.93 1.12 1.51 1.60 1.19 1.08 1.01 1.00 0.96 1.02 1.00 1.10 1.12 1.02 1.09 1.19 1.07 1.02 1.06 1.10 1.15 1.20 1.35 1.76 2.23 2.59 2.72 2.49
0.62 0.57 0.60 0.64 0.68 0.76 0.86 0.90 0.97 1.02 1.00 1.04 1.02 0.98 0.97 0.95 1.01 1.27 1.60 1.31 1.13 1.02 1.02 1.02 0.97 1.11 1.13 1.10 1.07 1.05 1.23 1.15 1.05 1.12 1.09 1.02 1.02 1.13 1.30 1.65 2.18 2.60 2.63
0.57 0.58 0.63 0.68 0.71 0.74 0.80 0.81 0.85 0.96 1.00 1.02 1.03 1.05 1.03 1.00 1.03 1.23 1.43 1.37 1.23 1.03 0.99 0.92 0.91 1.08 1.13 1.15 1.11 1.15 1.21 1.19 1.11 1.12 1.06 0.99 1.00 1.08 1.22 1.42 1.72 2.05 2.23
0.55 0.56 0.63 0.72 0.75 0.76 0.75 0.78 0.84 0.91 0.99 1.02 1.01 1.02 1.04 1.01 1.06 1.27 1.26 1.26 1.24 1.12 1.09 1.13 1.10 1.19 1.22 1.13 1.10 1.13 1.09 1.03 1.11 1.14 1.03 0.89 0.88 0.99 1.10 1.20 1.31 1.54 1.75
0.54 0.54 0.60 0.66 0.73 0.77 0.72 0.71 0.75 0.84 0.96 0.98 0.97 0.93 0.92 0.96 1.11 1.24 1.16 1.13 1.20 1.24 1.25 1.24 1.25 1.27 1.23 1.17 1.11 1.00 0.90 0.92 1.02 1.06 0.99 0.88 0.80 0.86 0.99 1.09 1.20 1.30 1.57
0.49 0.49 0.53 0.56 0.68 0.78 0.78 0.73 0.72 0.74 0.90 1.00 0.96 0.92 0.95 1.05 1.21 1.31 1.23 1.19 1.22 1.29 1.36 1.40 1.34 1.29 1.27 1.16 1.00 0.88 0.84 0.88 0.94 0.91 0.92 0.92 0.89 0.87 0.90 0.97 1.16 1.27 1.45
0.47 0.47 0.49 0.52 0.60 0.71 0.76 0.78 0.86 0.84 0.87 0.88 0.87 0.93 0.91 1.05 1.16 1.17 1.19 1.22 1.30 1.37 1.41 1.39 1.21 1.05 1.00 0.96 0.89 0.83 0.81 0.80 0.79 0.83 0.89 0.90 0.90 0.91 0.91 0.92 1.06 1.23 1.37
0.49 0.49 0.50 0.53 0.58 0.66 0.68 0.70 0.81 0.92 0.95 0.90 0.85 0.87 0.95 1.02 1.05 1.07 1.12 1.18 1.25 1.25 1.20 1.07 0.96 0.89 0.85 0.81 0.78 0.76 0.76 0.72 0.72 0.79 0.84 0.86 0.85 0.89 0.93 0.95 1.01 1.15 1.27
0.50 0.55 0.58 0.56 0.59 0.65 0.66 0.64 0.68 0.76 0.84 0.89 0.91 0.89 0.94 0.99 1.02 1.04 1.09 1.21 1.25 1.08 0.93 0.91 0.88 0.85 0.86 0.87 0.84 0.81 0.77 0.76 0.77 0.76 0.76 0.79 0.83 0.90 0.93 0.92 0.96 1.09 1.20
0.55 0.59 0.61 0.60 0.62 0.66 0.66 0.65 0.67 0.69 0.73 0.79 0.87 0.94 1.02 1.04 1.05 1.08 1.07 1.05 1.02 0.94 0.85 0.85 0.84 0.86 0.89 0.90 0.85 0.82 0.81 0.78 0.73 0.73 0.71 0.70 0.74 0.83 0.86 0.83 0.90 1.02 1.12
0.64 0.72 0.73 0.67 0.66 0.70 0.71 0.73 0.72 0.72 0.75 0.77 0.80 0.87 1.03 1.10 1.08 1.09 1.04 0.97 0.92 0.86 0.83 0.85 0.84 0.86 0.90 0.92 0.88 0.84 0.83 0.79 0.73 0.70 0.67 0.66 0.68 0.76 0.81 0.83 0.89 0.97 1.00
0.72 0.76 0.82 0.74 0.70 0.76 0.81 0.80 0.77 0.79 0.81 0.80 0.77 0.83 1.07 1.11 1.01 0.91 0.91 0.91 0.90 0.88 0.89 0.90 0.89 0.88 0.87 0.89 0.89 0.85 0.81 0.78 0.74 0.71 0.68 0.67 0.68 0.73 0.75 0.81 0.87 0.89 0.93
0.75 0.77 0.80 0.79 0.77 0.81 0.86 0.85 0.83 0.85 0.85 0.85 0.82 0.86 0.96 0.90 0.87 0.85 0.85 0.84 0.85 0.86 0.90 0.94 0.93 0.89 0.88 0.90 0.92 0.89 0.81 0.75 0.73 0.73 0.72 0.68 0.68 0.69 0.71 0.76 0.80 0.84 0.88
0.79 0.82 0.85 0.86 0.81 0.88 0.92 0.90 0.88 0.87 0.87 0.85 0.86 0.86 0.87 0.86 0.86 0.89 0.91 0.88 0.88 0.91 0.88 0.88 0.89 0.86 0.84 0.85 0.86 0.90 0.86 0.76 0.72 0.75 0.79 0.73 0.67 0.65 0.67 0.69 0.71 0.76 0.82
0.85 0.87 0.89 0.91 0.88 0.88 0.91 0.95 0.93 0.91 0.90 0.89 0.89 0.89 0.87 0.87 0.87 0.88 0.90 0.91 0.93 0.91 0.86 0.84 0.82 0.80 0.79 0.80 0.80 0.80 0.79 0.79 0.85 0.87 0.82 0.80 0.73 0.66 0.66 0.67 0.66 0.70 0.78
0.91 0.91 0.93 0.97 0.97 0.96 0.95 0.97 0.95 0.95 0.94 0.91 0.90 0.91 0.88 0.87 0.86 0.85 0.87 0.88 0.90 0.89 0.81 0.80 0.83 0.84 0.81 0.77 0.74 0.73 0.81 0.90 0.98 1.05 1.04 0.96 0.80 0.69 0.67 0.67 0.66 0.68 0.74
0.92 0.93 0.95 0.98 1.00 0.98 0.99 1.01 0.99 0.98 0.99 0.94 0.89 0.89 0.90 0.88 0.85 0.83 0.83 0.85 0.90 0.87 0.80 0.77 0.80 0.82 0.80 0.77 0.76 0.81 0.88 0.90 0.94 0.99 1.06 1.06 0.89 0.73 0.70 0.72 0.68 0.68 0.72